[[{"header":{"parameterUnit":"m.s-1","parameterCategory":2,"la1":30.2992,"la2":30.254,"lo1":-89.0895,"lo2":-89.0443,"dy":0.0025,"dx":0.0025,"nx":19,"ny":19,"refTime":"2026-05-15T03:00:00:Z","depth":"0","parameterNumber":2,"parameterNumberName":"U-component_of_CURRENTS"},"data":[0,0,0,-0.2845,-0.2848,-0.2964,-0.2965,-0.2998,-0.2998,0,0,0,0,0,0,0,0,0,0,0,-0.2776,-0.2776,-0.2845,-0.2848,-0.2964,-0.2965,-0.2998,-0.2998,0,0,0,0,0,0,0,0,0,0,0,-0.2776,-0.2776,-0.2776,-0.2848,-0.2964,-0.2965,-0.2998,-0.2937,0,0,0,0,0,0,0,0,0,0,-0.2838,-0.2779,-0.2776,-0.2776,-0.2849,-0.2964,-0.2965,-0.2935,-0.2941,-0.2915,0,-0.292,0,-0.2973,-0.2998,-0.2998,0,0,0,-0.2841,-0.2774,-0.2826,-0.2776,-0.285,-0.2964,-0.291,-0.2939,-0.2945,-0.2921,-0.2921,-0.2925,-0.2974,-0.2998,-0.2998,-0.284,-0.2838,0,0,-0.2834,-0.278,-0.2822,-0.2829,-0.2862,-0.2906,-0.2913,-0.2944,-0.2927,-0.2922,-0.2927,-0.2974,-0.2998,-0.2999,-0.2842,-0.284,0,0,0,-0.2821,-0.2774,-0.2827,-0.2826,-0.2864,-0.291,-0.2918,-0.2926,-0.2949,-0.2928,-0.2975,-0.2999,-0.2999,-0.2844,-0.2841,-0.2857,0,0,0,-0.2816,-0.2768,-0.2824,-0.279,-0.2864,-0.291,-0.2898,-0.2946,-0.2953,-0.2974,-0.2999,-0.2999,-0.2846,-0.2842,-0.2861,-0.2877,0,0,0,-0.2774,-0.2764,-0.2777,-0.2787,-0.2848,-0.2912,-0.2936,-0.2949,-0.2981,-0.2998,-0.2999,-0.2847,-0.2843,-0.2864,-0.2881,-0.2877,0,0,0,-0.2716,-0.2687,-0.2774,-0.2742,-0.2846,-0.2856,-0.2937,-0.2931,-0.2932,-0.2999,-0.2845,-0.2841,-0.2865,-0.2883,-0.2879,-0.2646,-0.2618,0,0,-0.2646,-0.2676,-0.2657,-0.274,-0.2752,-0.2841,-0.282,-0.2861,-0.2856,-0.2831,-0.2829,-0.2859,-0.2881,-0.2878,-0.2404,-0.2383,0,0,0,-0.2613,-0.2615,-0.2621,-0.2657,-0.2694,-0.2754,-0.2797,-0.2801,-0.2782,-0.2844,-0.2769,-0.278,-0.278,-0.2639,-0.2621,-0.2531,-0.2822,-0.2822,-0.2823,-0.2468,-0.2526,-0.2516,-0.2595,-0.2607,-0.2674,-0.2692,-0.2695,-0.2705,-0.2665,-0.2726,-0.2641,-0.2483,-0.2469,-0.2377,-0.2642,-0.2642,-0.2642,-0.2642,-0.2394,-0.2394,-0.2479,-0.2496,-0.257,-0.257,-0.262,-0.2639,-0.2635,-0.2635,-0.2634,-0.2576,-0.245,-0.2359,-0.2642,-0.2642,-0.2642,-0.2642,-0.2642,-0.2316,-0.2325,-0.2364,-0.2416,-0.2467,-0.2536,-0.2566,-0.2614,-0.2627,-0.2634,-0.2474,-0.2471,-0.2455,-0.2633,-0.2633,-0.2633,-0.2633,-0.2633,-0.2633,-0.2206,-0.2255,-0.2267,-0.2338,-0.238,-0.2449,-0.2536,-0.2537,-0.2483,-0.2449,-0.2447,-0.2351,-0.2638,-0.2713,-0.2633,-0.2633,-0.2633,-0.2633,-0.2633,-0.2083,-0.2119,-0.2143,-0.2181,-0.2287,-0.2207,-0.239,-0.228,-0.2304,-0.2208,-0.2087,-0.234,-0.2321,-0.233,-0.2393,-0.2237,-0.2237,-0.2237,-0.2237,-0.1978,-0.2006,-0.2029,-0.2084,-0.2142,-0.2109,-0.1862,-0.184,-0.1835,-0.1777,-0.1878,-0.1802,-0.1823,-0.1774,-0.1796,-0.1847,-0.1557,-0.1556,-0.1556,-0.1877,-0.1923,-0.19,-0.1994,-0.2066,-0.1898,-0.1447,-0.1188,-0.1312,-0.1532,-0.1805,-0.1833,-0.1735,-0.1775,-0.1711,-0.1749,-0.1839,0,0]},{"header":{"parameterUnit":"m.s-1","parameterCategory":2,"la1":30.2992,"la2":30.254,"lo1":-89.0895,"lo2":-89.0443,"dy":0.0025,"dx":0.0025,"nx":19,"ny":19,"refTime":"2026-05-15T03:00:00:Z","depth":"0","parameterNumber":3,"parameterNumberName":"V-component_of_CURRENTS"},"data":[0,0,0,-0.0349,-0.0347,-0.0203,-0.0202,0.0074,0.0077,0,0,0,0,0,0,0,0,0,0,0,-0.0401,-0.0401,-0.0349,-0.0347,-0.0203,-0.0202,0.0074,0.0077,0,0,0,0,0,0,0,0,0,0,0,-0.0401,-0.0401,-0.0401,-0.0347,-0.0203,-0.0202,0.0073,-0.005,0,0,0,0,0,0,0,0,0,0,-0.0198,-0.0281,-0.0401,-0.0401,-0.0346,-0.0204,-0.0202,-0.0057,-0.0043,0.0025,0,0.0023,0,0.0046,0.0094,0.0095,0,0,0,-0.0314,-0.0293,-0.0251,-0.0401,-0.0345,-0.0204,-0.0259,-0.0049,-0.0033,0.0045,0.0026,0.0036,0.005,0.0096,0.0097,0.0209,0.0208,0,0,-0.0322,-0.0366,-0.0263,-0.0242,-0.0337,-0.0264,-0.0255,-0.004,-0.0036,0.0027,0.0043,0.0055,0.0098,0.01,0.021,0.0209,0,0,0,-0.0367,-0.0372,-0.0336,-0.0253,-0.024,-0.026,-0.025,-0.0045,-0.0033,0.0046,0.0058,0.0099,0.0103,0.0211,0.0209,0.0087,0,0,0,-0.037,-0.04,-0.034,-0.0363,-0.0246,-0.0156,-0.026,-0.0048,-0.0023,0.0056,0.0099,0.0105,0.0211,0.021,0.0092,0.0058,0,0,0,-0.0403,-0.0403,-0.0396,-0.0366,-0.0318,-0.016,-0.0134,-0.0042,-0.0016,0.0095,0.0106,0.0212,0.021,0.0097,0.0066,0.0141,0,0,0,-0.0437,-0.0454,-0.0397,-0.0414,-0.032,-0.027,-0.0135,-0.0074,0.0005,0.0101,0.0211,0.021,0.0098,0.007,0.0144,0.0298,0.0299,0,0,-0.0478,-0.046,-0.047,-0.0417,-0.0409,-0.0286,-0.0252,-0.0093,0.0005,0.0156,0.0159,0.0091,0.0066,0.0142,0.0195,0.02,0,0,0,-0.0497,-0.0508,-0.0496,-0.0478,-0.0417,-0.0345,-0.0207,-0.0132,-0.0015,0.0039,0.0089,0.0078,0.013,0.0227,0.023,0.0411,0.0201,0.0202,0.0202,-0.0594,-0.0564,-0.0584,-0.0539,-0.0502,-0.0378,-0.0308,-0.0179,-0.0083,-0.0068,-0.0025,-0.0055,0.004,0.0046,0.0226,-0.0036,-0.0037,-0.0037,-0.0038,-0.068,-0.0698,-0.0655,-0.0663,-0.058,-0.0534,-0.037,-0.0297,-0.0159,-0.0122,-0.0064,0.0087,0.0044,0.0235,-0.0046,-0.0044,-0.0043,-0.0042,-0.0042,-0.0758,-0.0761,-0.0761,-0.0764,-0.0727,-0.062,-0.0509,-0.0408,-0.0255,-0.0227,-0.0002,0.0002,0.0186,-0.0168,-0.0167,-0.0167,-0.0167,-0.0167,-0.0167,-0.0836,-0.0832,-0.0868,-0.0863,-0.0849,-0.0773,-0.0588,-0.045,-0.0219,-0.0095,-0.0092,0.02,-0.0092,-0.0069,-0.0165,-0.0166,-0.0166,-0.0166,-0.0166,-0.0913,-0.0915,-0.0957,-0.0963,-0.0887,-0.0646,-0.0562,-0.018,-0.0085,0.008,0.0329,0.0025,0.0113,0.0114,0.0143,0.0109,0.0109,0.0109,0.0109,-0.0963,-0.0971,-0.0964,-0.092,-0.0801,-0.056,-0.0071,0.0243,0.0499,0.0614,0.0538,0.0584,0.0565,0.0682,0.067,0.0712,0.0822,0.0823,0.0824,-0.1001,-0.0994,-0.0938,-0.0857,-0.0693,-0.031,0.032,0.0828,0.0954,0.0864,0.0753,0.0723,0.0797,0.0753,0.0939,0.0907,0.0977,0,0]}],[{"header":{"parameterUnit":"m.s-1","parameterCategory":2,"la1":30.2992,"la2":30.254,"lo1":-89.0895,"lo2":-89.0443,"dy":0.0025,"dx":0.0025,"nx":19,"ny":19,"refTime":"2026-05-15T03:00:00:Z","depth":"2","parameterNumber":2,"parameterNumberName":"U-component_of_CURRENTS"},"data":[0,0,0,-0.249,-0.2491,-0.2556,-0.2557,-0.2585,-0.2585,0,0,0,0,0,0,0,0,0,0,0,-0.2453,-0.2454,-0.249,-0.2492,-0.2556,-0.2557,-0.2585,-0.2585,0,0,0,0,0,0,0,0,0,0,0,-0.2453,-0.2454,-0.2454,-0.2492,-0.2556,-0.2557,-0.2585,-0.2548,0,0,0,0,0,0,0,0,0,0,-0.2491,-0.2455,-0.2453,-0.2454,-0.2492,-0.2556,-0.2557,-0.2546,-0.255,-0.2542,0,-0.255,0,-0.2577,-0.2586,-0.2587,0,0,0,-0.2484,-0.2452,-0.2486,-0.2454,-0.2493,-0.2556,-0.2525,-0.2549,-0.2553,-0.2547,-0.2551,-0.2553,-0.2578,-0.2587,-0.2587,-0.2503,-0.2502,0,0,-0.248,-0.245,-0.2483,-0.2489,-0.2506,-0.2523,-0.2527,-0.2552,-0.2543,-0.2551,-0.2554,-0.2578,-0.2587,-0.2587,-0.2504,-0.2503,0,0,0,-0.2475,-0.2447,-0.2481,-0.2486,-0.2508,-0.2525,-0.253,-0.2541,-0.2557,-0.2555,-0.2578,-0.2587,-0.2587,-0.2505,-0.2503,-0.2532,0,0,0,-0.2473,-0.2445,-0.2479,-0.2459,-0.2507,-0.2531,-0.2519,-0.2555,-0.256,-0.2578,-0.2587,-0.2587,-0.2506,-0.2504,-0.2534,-0.2542,0,0,0,-0.2451,-0.2443,-0.2453,-0.2458,-0.2494,-0.2532,-0.2548,-0.2557,-0.2574,-0.2587,-0.2587,-0.2507,-0.2505,-0.2536,-0.2544,-0.2527,0,0,0,-0.2415,-0.2396,-0.2452,-0.2437,-0.2493,-0.2507,-0.2548,-0.2554,-0.2559,-0.2587,-0.2506,-0.2504,-0.2536,-0.2545,-0.2528,-0.2319,-0.2296,0,0,-0.2368,-0.2389,-0.2382,-0.2434,-0.2449,-0.2498,-0.2493,-0.2521,-0.2512,-0.2496,-0.2495,-0.2534,-0.2544,-0.2527,-0.2171,-0.2153,0,0,0,-0.2352,-0.2353,-0.2363,-0.239,-0.2423,-0.2461,-0.2489,-0.2493,-0.2481,-0.2507,-0.2473,-0.2477,-0.2467,-0.2341,-0.2325,-0.2491,-0.2492,-0.2492,-0.2492,-0.224,-0.229,-0.2291,-0.2356,-0.2373,-0.2426,-0.2438,-0.2438,-0.2448,-0.2425,-0.2457,-0.2401,-0.2262,-0.2249,-0.2407,-0.2407,-0.2407,-0.2407,-0.2407,-0.2184,-0.2188,-0.2264,-0.2287,-0.2349,-0.2358,-0.2401,-0.2417,-0.2408,-0.2413,-0.2402,-0.2321,-0.2234,-0.2408,-0.2408,-0.2408,-0.2408,-0.2408,-0.2408,-0.2116,-0.2127,-0.2166,-0.222,-0.2269,-0.2333,-0.235,-0.2401,-0.2408,-0.2411,-0.2253,-0.225,-0.245,-0.2405,-0.2405,-0.2405,-0.2405,-0.2405,-0.2405,-0.2021,-0.2068,-0.2075,-0.2154,-0.2182,-0.224,-0.2324,-0.2318,-0.2271,-0.224,-0.2238,-0.24,-0.24,-0.2446,-0.2404,-0.2404,-0.2404,-0.2404,-0.2404,-0.191,-0.1947,-0.1946,-0.1971,-0.2041,-0.1999,-0.2156,-0.2077,-0.2089,-0.2005,-0.2127,-0.2134,-0.2103,-0.2111,-0.2147,-0.203,-0.203,-0.203,-0.203,-0.1814,-0.1843,-0.179,-0.1789,-0.182,-0.1867,-0.1729,-0.172,-0.1764,-0.1746,-0.1759,-0.171,-0.1729,-0.1677,-0.1695,-0.1723,-0.1496,-0.1496,-0.1495,-0.1719,-0.1728,-0.1625,-0.1649,-0.1685,-0.165,-0.145,-0.1337,-0.1322,-0.1482,-0.1751,-0.1978,-0.1938,-0.1957,-0.1903,-0.1922,-0.1978,0,0]},{"header":{"parameterUnit":"m.s-1","parameterCategory":2,"la1":30.2992,"la2":30.254,"lo1":-89.0895,"lo2":-89.0443,"dy":0.0025,"dx":0.0025,"nx":19,"ny":19,"refTime":"2026-05-15T03:00:00:Z","depth":"2","parameterNumber":3,"parameterNumberName":"V-component_of_CURRENTS"},"data":[0,0,0,-0.0444,-0.0442,-0.0345,-0.0344,-0.0138,-0.0137,0,0,0,0,0,0,0,0,0,0,0,-0.0479,-0.0478,-0.0444,-0.0442,-0.0345,-0.0344,-0.0139,-0.0137,0,0,0,0,0,0,0,0,0,0,0,-0.0479,-0.0478,-0.0478,-0.0442,-0.0345,-0.0344,-0.0139,-0.0228,0,0,0,0,0,0,0,0,0,0,-0.033,-0.0391,-0.0478,-0.0478,-0.0442,-0.0345,-0.0344,-0.0233,-0.0222,-0.0166,0,-0.0168,0,-0.0154,-0.0123,-0.0122,0,0,0,-0.042,-0.04,-0.0368,-0.0478,-0.0441,-0.0345,-0.0383,-0.0227,-0.0215,-0.0152,-0.0165,-0.0158,-0.0151,-0.0122,-0.0121,0.0008,0.0008,0,0,-0.0426,-0.0457,-0.0377,-0.0362,-0.0435,-0.0386,-0.038,-0.0221,-0.0218,-0.0165,-0.0153,-0.0147,-0.012,-0.0119,0.0008,0.0008,0,0,0,-0.0456,-0.0461,-0.0434,-0.037,-0.0362,-0.0384,-0.0377,-0.0224,-0.0215,-0.0151,-0.0145,-0.0119,-0.0117,0.0008,0.0008,-0.009,0,0,0,-0.0458,-0.048,-0.0437,-0.0454,-0.0366,-0.0306,-0.0384,-0.0226,-0.0208,-0.0146,-0.0119,-0.0115,0.0008,0.0008,-0.0087,-0.0128,0,0,0,-0.048,-0.0482,-0.0476,-0.0456,-0.0423,-0.0308,-0.0289,-0.0222,-0.0204,-0.0122,-0.0114,0.0009,0.0008,-0.0085,-0.0123,-0.0071,0,0,0,-0.0505,-0.0519,-0.0477,-0.049,-0.0424,-0.0379,-0.029,-0.0239,-0.0179,-0.0118,0.0008,0.0008,-0.0084,-0.012,-0.0069,0.0001,-0.0001,0,0,-0.0539,-0.0524,-0.0532,-0.0492,-0.0481,-0.0389,-0.0354,-0.0239,-0.0159,-0.0033,-0.0031,-0.0088,-0.0123,-0.007,-0.0014,-0.0015,0,0,0,-0.0552,-0.0561,-0.0549,-0.0534,-0.048,-0.0423,-0.0316,-0.0253,-0.0152,-0.0128,-0.0066,-0.0084,-0.0047,-0.0002,-0.0002,0.0007,0.0007,0.0007,0.0007,-0.0635,-0.0607,-0.062,-0.0578,-0.0542,-0.0435,-0.0375,-0.0265,-0.0188,-0.0162,-0.0148,-0.0155,-0.011,-0.0109,-0.0129,-0.0129,-0.013,-0.013,-0.013,-0.0708,-0.0722,-0.0679,-0.0682,-0.0608,-0.0563,-0.0415,-0.0352,-0.0234,-0.0199,-0.0158,-0.0089,-0.0116,-0.0137,-0.0136,-0.0135,-0.0134,-0.0134,-0.0133,-0.0777,-0.0779,-0.0776,-0.0776,-0.074,-0.0643,-0.0566,-0.0459,-0.0318,-0.0295,-0.0158,-0.0155,-0.019,-0.0252,-0.0252,-0.0252,-0.0252,-0.0252,-0.0252,-0.0851,-0.0844,-0.0884,-0.0869,-0.0869,-0.0816,-0.0654,-0.0548,-0.0355,-0.0242,-0.024,-0.0194,-0.019,-0.0193,-0.0251,-0.0252,-0.0252,-0.0252,-0.0252,-0.093,-0.0931,-0.1001,-0.102,-0.1017,-0.0999,-0.0814,-0.0542,-0.0377,-0.0258,-0.0171,-0.0173,-0.0114,-0.0111,-0.011,-0.0142,-0.0142,-0.0142,-0.0142,-0.0988,-0.0992,-0.111,-0.1174,-0.1183,-0.1095,-0.0948,-0.0644,-0.0318,-0.0151,-0.0151,-0.0145,-0.0148,-0.009,-0.0087,-0.0085,-0.0112,-0.0112,-0.0112,-0.1039,-0.1075,-0.1183,-0.1259,-0.1282,-0.1199,-0.1098,-0.0763,-0.025,-0.0118,-0.0213,-0.0127,-0.0117,-0.0122,-0.0028,-0.0027,-0.002,0,0]}],[{"header":{"parameterUnit":"m.s-1","parameterCategory":2,"la1":30.2992,"la2":30.254,"lo1":-89.0895,"lo2":-89.0443,"dy":0.0025,"dx":0.0025,"nx":19,"ny":19,"refTime":"2026-05-15T03:00:00:Z","depth":"4","parameterNumber":2,"parameterNumberName":"U-component_of_CURRENTS"},"data":[0,0,0,-0.1844,-0.1847,-0.1971,-0.1971,-0.1977,-0.1977,0,0,0,0,0,0,0,0,0,0,0,-0.1802,-0.1804,-0.1844,-0.1847,-0.1971,-0.1971,-0.1977,-0.1977,0,0,0,0,0,0,0,0,0,0,0,-0.1802,-0.1803,-0.1805,-0.1848,-0.1971,-0.1971,-0.1977,-0.192,0,0,0,0,0,0,0,0,0,0,-0.1818,-0.1807,-0.1803,-0.1805,-0.1849,-0.1971,-0.1971,-0.1919,-0.1923,-0.188,0,-0.1914,0,-0.1946,-0.1975,-0.1974,0,0,0,-0.1839,-0.1803,-0.1835,-0.1805,-0.185,-0.1971,-0.1913,-0.1922,-0.1927,-0.1885,-0.1915,-0.1916,-0.1946,-0.1974,-0.1974,-0.1979,-0.198,0,0,-0.1832,-0.1819,-0.1833,-0.1839,-0.1898,-0.1909,-0.1917,-0.1927,-0.1936,-0.1915,-0.1917,-0.1946,-0.1974,-0.1974,-0.1979,-0.1979,0,0,0,-0.1818,-0.1814,-0.185,-0.1838,-0.1873,-0.1913,-0.1922,-0.1936,-0.1948,-0.1918,-0.1946,-0.1974,-0.1973,-0.1979,-0.1979,-0.2013,0,0,0,-0.1814,-0.1807,-0.1847,-0.1839,-0.1874,-0.1928,-0.193,-0.1948,-0.195,-0.1946,-0.1974,-0.1973,-0.1978,-0.1979,-0.2012,-0.2004,0,0,0,-0.1794,-0.1804,-0.1824,-0.1838,-0.1896,-0.1929,-0.1943,-0.195,-0.1966,-0.1974,-0.1973,-0.1978,-0.1979,-0.201,-0.2002,-0.1981,0,0,0,-0.1767,-0.1779,-0.1825,-0.1851,-0.1895,-0.1951,-0.1944,-0.1991,-0.2004,-0.1974,-0.1978,-0.1979,-0.201,-0.2001,-0.198,-0.1723,0,0,0,-0.1754,-0.1777,-0.1791,-0.1835,-0.1884,-0.1932,-0.1974,-0.1997,-0.1995,-0.1961,-0.1963,-0.2012,-0.2002,-0.1981,-0.1771,0,0,0,0,-0.1768,-0.1783,-0.1806,-0.1855,-0.1908,-0.1961,-0.2,-0.2015,-0.2035,-0.2009,-0.2018,-0.201,-0.1996,-0.1845,-0.1983,-0.1983,-0.1983,-0.1983,-0.1982,-0.1707,-0.1756,-0.179,-0.1858,-0.1903,-0.1983,-0.2013,-0.2037,-0.2041,-0.2067,-0.2043,-0.2056,-0.19,-0.2061,-0.2061,-0.2061,-0.2061,-0.2062,-0.2062,-0.1681,-0.1696,-0.1784,-0.1838,-0.1914,-0.1964,-0.2023,-0.2051,-0.2064,-0.2079,-0.2063,-0.1899,-0.2065,-0.2064,-0.2064,-0.2064,-0.2063,-0.2063,-0.2063,-0.1626,-0.164,-0.1708,-0.1798,-0.188,-0.1965,-0.1984,-0.2055,-0.2074,-0.2078,-0.1896,-0.206,-0.2048,-0.2077,-0.2077,-0.2077,-0.2077,-0.2077,-0.2077,-0.1529,-0.1597,-0.1638,-0.1755,-0.1806,-0.188,-0.1975,-0.196,-0.2012,-0.1885,-0.2083,-0.206,-0.2059,-0.2048,-0.2075,-0.2075,-0.2076,-0.2076,-0.2076,-0.1431,-0.1484,-0.1515,-0.1569,-0.1668,-0.1706,-0.1846,-0.1773,-0.1734,-0.1648,-0.1765,-0.1781,-0.1731,-0.1738,-0.1714,-0.1643,-0.1639,-0.1636,0,-0.1345,-0.1381,-0.1377,-0.1398,-0.1418,-0.1564,-0.1455,-0.1477,-0.1512,-0.1469,-0.1722,-0.1856,-0.1865,-0.1815,-0.1815,-0.1788,0,0,0,-0.1269,-0.1277,-0.1218,-0.1261,-0.1276,-0.1294,-0.1405,-0.1334,-0.1544,-0.1413,-0.1554,-0.1576,-0.1872,-0.207,-0.2031,-0.2031,-0.2009,0,0]},{"header":{"parameterUnit":"m.s-1","parameterCategory":2,"la1":30.2992,"la2":30.254,"lo1":-89.0895,"lo2":-89.0443,"dy":0.0025,"dx":0.0025,"nx":19,"ny":19,"refTime":"2026-05-15T03:00:00:Z","depth":"4","parameterNumber":3,"parameterNumberName":"V-component_of_CURRENTS"},"data":[0,0,0,-0.0376,-0.0376,-0.0335,-0.0335,-0.0229,-0.0228,0,0,0,0,0,0,0,0,0,0,0,-0.0393,-0.0393,-0.0376,-0.0376,-0.0335,-0.0335,-0.023,-0.0228,0,0,0,0,0,0,0,0,0,0,0,-0.0393,-0.0393,-0.0393,-0.0376,-0.0335,-0.0335,-0.023,-0.0271,0,0,0,0,0,0,0,0,0,0,-0.0315,-0.035,-0.0393,-0.0393,-0.0375,-0.0335,-0.0335,-0.0273,-0.0268,-0.0237,0,-0.0243,0,-0.0236,-0.0221,-0.0221,0,0,0,-0.0363,-0.0354,-0.0338,-0.0393,-0.0375,-0.0335,-0.035,-0.0271,-0.0265,-0.023,-0.0241,-0.0238,-0.0235,-0.0221,-0.022,-0.0099,-0.0098,0,0,-0.0365,-0.0384,-0.0343,-0.0335,-0.0379,-0.0351,-0.0349,-0.0268,-0.0269,-0.0241,-0.0235,-0.0233,-0.022,-0.0219,-0.0099,-0.0098,0,0,0,-0.038,-0.0386,-0.0373,-0.034,-0.0338,-0.035,-0.0347,-0.0273,-0.0268,-0.0234,-0.0232,-0.0219,-0.0218,-0.01,-0.0099,-0.0174,0,0,0,-0.0381,-0.0395,-0.0374,-0.0385,-0.0341,-0.0314,-0.0355,-0.0273,-0.0264,-0.0232,-0.0219,-0.0217,-0.01,-0.0099,-0.0174,-0.0216,0,0,0,-0.0392,-0.0396,-0.0395,-0.0386,-0.0374,-0.0316,-0.0306,-0.0271,-0.0263,-0.0221,-0.0217,-0.0101,-0.0099,-0.0173,-0.0213,-0.0184,0,0,0,-0.0406,-0.042,-0.0396,-0.0409,-0.0374,-0.0344,-0.0306,-0.0278,-0.0247,-0.0219,-0.01,-0.0099,-0.0173,-0.0212,-0.0183,-0.0232,0,0,0,-0.043,-0.0423,-0.043,-0.0408,-0.0402,-0.0348,-0.0321,-0.0268,-0.021,-0.0122,-0.012,-0.0174,-0.0213,-0.0184,-0.0154,0,0,0,0,-0.0442,-0.045,-0.0442,-0.0437,-0.0401,-0.0366,-0.0305,-0.0259,-0.0185,-0.0187,-0.0126,-0.0147,-0.0127,-0.0151,-0.0093,-0.0093,-0.0093,-0.0093,-0.0093,-0.05,-0.0481,-0.0492,-0.0464,-0.044,-0.0368,-0.0327,-0.0244,-0.0195,-0.0161,-0.0174,-0.0156,-0.0182,-0.0126,-0.0126,-0.0127,-0.0127,-0.0127,-0.0127,-0.055,-0.0561,-0.0535,-0.0543,-0.0493,-0.0463,-0.0348,-0.0302,-0.0209,-0.0179,-0.0155,-0.0186,-0.0134,-0.0132,-0.0131,-0.0131,-0.013,-0.013,-0.0129,-0.0596,-0.0597,-0.0607,-0.062,-0.0602,-0.0534,-0.0486,-0.0396,-0.0279,-0.0261,-0.0231,-0.0182,-0.0214,-0.0234,-0.0234,-0.0234,-0.0234,-0.0234,-0.0234,-0.0642,-0.0645,-0.0694,-0.0697,-0.0714,-0.0688,-0.0573,-0.0497,-0.0374,-0.031,-0.0271,-0.0191,-0.0188,-0.0217,-0.0235,-0.0235,-0.0235,-0.0235,-0.0235,-0.0691,-0.0708,-0.0783,-0.0821,-0.0852,-0.0818,-0.0711,-0.0535,-0.0452,-0.036,-0.0307,-0.0303,-0.0271,-0.0265,-0.0297,-0.034,-0.034,-0.0341,0,-0.0733,-0.0743,-0.0872,-0.0953,-0.0977,-0.0902,-0.078,-0.0654,-0.0489,-0.0502,-0.0462,-0.0412,-0.0406,-0.038,-0.0375,-0.0418,0,0,0,-0.0774,-0.0814,-0.0924,-0.1014,-0.1047,-0.088,-0.0749,-0.069,-0.0516,-0.0419,-0.0359,-0.0354,-0.0319,-0.0238,-0.0178,-0.0174,-0.0217,0,0]}]]